[[[{"header":{"parameterUnit":"kt","parameterCategory":2,"dx":1,"dy":1,"la1":30.253999710083008,"la2":30.299108505249023,"lo1":-89.0895004272461,"lo2":-89.04439544677734,"nx":28,"ny":28,"refTime":"2022-10-18T21:00:00:Z","depth":0,"parameterNumber":1,"parameterNumberName":"U-component_of_WINDS"},"data":[2.4225,2.4208,2.4198,2.4174,2.4161,2.4143,2.4133,2.412,2.4106,2.4083,2.4068,2.4055,2.4037,2.4016,2.3999,2.3993,2.3986,2.3989,2.3982,2.398,2.3979,2.3978,2.3981,2.3988,2.3988,2.3985,2.3985,2.3985,2.423,2.4217,2.4201,2.4178,2.4164,2.4157,2.4138,2.4127,2.411,2.4093,2.4077,2.4055,2.4036,2.4016,2.3996,2.3987,2.3981,2.3983,2.3982,2.3979,2.3977,2.3981,2.3988,2.3988,2.3988,2.3988,2.3988,2.3988,2.4235,2.4224,2.4204,2.4186,2.4172,2.4157,2.4145,2.413,2.4113,2.409,2.408,2.4061,2.404,2.4009,2.3995,2.398,2.3976,2.3973,2.3972,2.3971,2.3973,2.398,2.3976,2.3976,2.3976,2.3975,2.3975,0,2.4235,2.4227,2.4209,2.419,2.4176,2.4159,2.4141,2.4134,2.4111,2.4098,2.4078,2.4065,2.4038,2.4017,2.3995,2.398,2.3968,2.3965,2.3963,2.3968,2.3976,2.3972,2.3969,2.3965,2.3965,2.3964,2.3964,2.3964,2.4239,2.4227,2.42,2.419,2.4177,2.416,2.4147,2.4127,2.4115,2.409,2.4081,2.406,2.4042,2.4011,2.399,2.3969,2.3962,2.3963,2.3959,2.3965,2.3962,2.3963,2.3962,2.3963,2.3963,2.3963,2.3963,0,2.4242,2.4223,2.4202,2.4174,2.4167,2.4156,2.4133,2.4121,2.4106,2.4087,2.4081,2.4057,2.4036,2.4015,2.3987,2.3976,2.3959,2.3953,2.3967,2.3964,2.3962,2.3962,2.3958,2.3956,2.3949,2.395,2.395,0,2.4238,2.4223,2.4195,2.4183,2.4167,2.4146,2.413,2.4115,2.4095,2.408,2.4063,2.405,2.4024,2.4007,2.3991,2.3973,2.3967,2.3958,2.3953,2.3958,2.396,2.3949,2.3949,2.3944,2.3944,2.3944,2.3944,0,2.4244,2.4211,2.4192,2.4181,2.4149,2.414,2.4126,2.4103,2.409,2.407,2.4061,2.4038,2.4026,2.4009,2.3988,2.3987,2.3965,2.3958,2.3955,2.3955,2.3949,2.3949,2.3953,2.3944,2.3944,2.3944,2.3944,0,2.4237,2.4217,2.4191,2.4164,2.4156,2.4142,2.4119,2.4102,2.4079,2.4068,2.4051,2.4036,2.4017,2.4013,2.3987,2.3991,2.398,2.3969,2.3968,2.3964,2.3959,2.3963,2.3968,2.3968,2.3963,2.3963,2.3963,0,2.425,2.4218,2.4199,2.4175,2.4157,2.4139,2.4124,2.4103,2.4086,2.4069,2.405,2.4029,2.4021,2.4011,2.4002,2.3981,2.3976,2.3981,2.3955,2.3955,2.3962,2.3968,2.3973,2.397,2.3965,2.3965,2.3964,0,2.4257,2.4216,2.4213,2.42,2.4168,2.4152,2.4134,2.4109,2.4098,2.4075,2.406,2.4029,2.4022,2.4005,2.3989,2.398,2.3979,2.3972,2.3971,2.3975,2.3963,2.3969,2.3969,2.397,2.397,2.397,2.3966,0,2.4251,2.4231,2.4221,2.4189,2.4173,2.4156,2.4131,2.4118,2.4104,2.4086,2.4063,2.4037,2.4009,2.4002,2.3987,2.3973,2.3972,2.3963,2.3955,2.3959,2.3957,2.3956,2.3961,2.396,2.396,2.396,0,0,2.4268,2.4238,2.4216,2.4197,2.4182,2.4161,2.4144,2.4127,2.4091,2.4081,2.4077,2.403,2.4008,2.3981,2.398,2.3969,2.3964,2.3962,2.3957,2.3957,2.3957,2.3955,2.3955,2.3959,2.3959,2.3959,2.3959,0,2.4259,2.4239,2.4223,2.4204,2.4175,2.4156,2.4153,2.4119,2.4106,2.4082,2.4063,2.4045,2.4006,2.3986,2.3971,2.3966,2.3951,2.3959,2.3965,2.3955,2.3955,2.3955,2.3954,2.3954,2.3958,2.3958,2.3958,0,2.4262,2.4238,2.4227,2.419,2.417,2.4151,2.4137,2.4116,2.4102,2.4076,2.4052,2.4033,2.4003,2.3981,2.3969,2.3965,2.3942,2.3943,2.3944,2.3942,2.393,2.3931,2.3931,2.3926,2.3926,2.3926,0,0,2.4258,2.4238,2.4204,2.4186,2.4175,2.4146,2.4132,2.4116,2.409,2.408,2.4055,2.403,2.4007,2.3992,2.3969,2.3947,2.3939,2.394,2.3942,2.3943,2.3942,2.393,2.3931,2.3926,2.3926,2.3926,0,0,2.4255,2.4215,2.4205,2.4181,2.4158,2.4122,2.4112,2.4099,2.4075,2.4074,2.4044,2.4036,2.4014,2.3996,2.4,2.3965,2.3958,2.3956,2.3978,2.3979,2.398,2.3985,2.398,0,0,0,0,0,2.4232,2.422,2.4212,2.4204,2.4156,2.4127,2.412,2.4096,2.4093,2.4086,2.4063,2.4048,2.3992,2.3995,2.3987,2.3982,2.3927,2.3927,2.3927,2.3949,2.395,2.3952,0,0,0,0,0,0,2.4229,2.4219,2.4212,2.4176,2.4165,2.4127,2.4115,2.4109,2.4093,2.4091,2.4053,2.4047,2.4025,2.3997,2.399,2.3986,2.3982,2.3927,2.3927,2.3927,2.3949,2.3951,2.3952,0,0,0,0,0,2.4226,2.4218,2.4147,2.4176,2.4166,2.4132,2.4116,2.411,2.4097,2.4061,2.4054,2.408,2.4026,2.4018,2.3993,2.399,2.3986,2.3984,2.3927,2.3927,2.3927,2.395,0,0,0,0,0,0,2.4224,2.4213,2.4145,2.4141,2.4178,2.4134,2.4126,2.4111,2.4068,2.4061,2.4087,2.4086,2.4026,2.402,2.4014,2.3993,2.399,2.3988,2.3986,2.3927,2.3927,2.3927,0,0,0,0,0,0,2.4217,2.4209,2.4143,2.4147,2.4143,2.4135,2.4128,2.4103,2.4067,2.4096,2.4094,2.4087,2.4034,2.4021,2.4017,2.3978,2.3993,2.3991,2.3989,2.3988,2.3927,2.3927,0,0,0,0,0,0,2.4213,2.4207,2.4148,2.4145,2.4142,2.4097,2.4112,2.4063,2.4072,2.4098,2.4072,2.4072,2.4035,2.403,2.4019,2.3982,2.3979,2.3993,2.3991,2.399,2.3989,0,0,0,0,0,0,0,2.421,2.4257,2.4168,2.4143,2.414,2.4105,2.4104,2.4103,2.4072,2.4072,2.4072,2.4072,2.4007,2.4004,2.4001,2.3985,0,0,2.3993,2.3992,0,0,0,0,0,0,0,0,2.4259,2.4258,2.4167,2.4167,2.4166,2.4105,2.4104,2.4103,2.4072,2.4072,2.4072,2.4072,2.4006,2.4004,2.4002,0,0,0,0,0,0,0,0,0,0,0,0,0,0,0,2.4167,2.4167,0,2.4105,2.4104,2.4104,2.4072,2.4072,2.4072,2.4072,2.4005,2.4004,2.4002,0,0,0,0,0,0,0,0,0,0,0,0,0,0,0,0,0,0,0,0,0,0,0,0,0,0,0,0,0,0,0,0,0,0,0,0,0,0,0,0,0,0,0,0,0,0,0,0,0,0,0,0,0,0,0,0,0,0,0,0,0,0,0,0,0,0,0,0,0]}],[{"header":{"parameterUnit":"kt","parameterCategory":2,"dx":1,"dy":1,"la1":30.253999710083008,"la2":30.299108505249023,"lo1":-89.0895004272461,"lo2":-89.04439544677734,"nx":28,"ny":28,"refTime":"2022-10-18T21:00:00:Z","depth":0,"parameterNumber":2,"parameterNumberName":"V-component_of_WINDS"},"data":[-11.0641,-11.0783,-11.0809,-11.0982,-11.1032,-11.1154,-11.1204,-11.1271,-11.133,-11.1474,-11.156,-11.1595,-11.1659,-11.1765,-11.1857,-11.1869,-11.1907,-11.1942,-11.195,-11.1776,-11.1753,-11.1731,-11.1701,-11.195,-11.195,-11.2129,-11.213,-11.2131,-11.0518,-11.0572,-11.067,-11.0781,-11.0865,-11.0848,-11.0932,-11.1003,-11.1109,-11.1181,-11.1267,-11.1393,-11.1494,-11.1546,-11.1646,-11.1709,-11.1704,-11.1735,-11.173,-11.1741,-11.1555,-11.1523,-11.1738,-11.1738,-11.1738,-11.1738,-11.1738,-11.1737,-11.0301,-11.0385,-11.0467,-11.0573,-11.0634,-11.0707,-11.0789,-11.0832,-11.0925,-11.1034,-11.104,-11.1159,-11.1232,-11.1359,-11.1406,-11.1498,-11.1466,-11.1505,-11.1515,-11.1525,-11.1535,-11.1279,-11.1514,-11.1514,-11.1513,-11.1513,-11.1513,0,-11.015,-11.0165,-11.0259,-11.0362,-11.0439,-11.0519,-11.0594,-11.0645,-11.0677,-11.0752,-11.0861,-11.0927,-11.1055,-11.1157,-11.1253,-11.1292,-11.1276,-11.1275,-11.1302,-11.1303,-11.1293,-11.1302,-11.1,-11.1267,-11.1265,-11.1264,-11.1263,-11.1262,-10.9934,-11.0027,-11.0121,-11.0184,-11.0231,-11.033,-11.0394,-11.0415,-11.0481,-11.0574,-11.0644,-11.0747,-11.0831,-11.0997,-11.1037,-11.1131,-11.1123,-11.1224,-11.1137,-11.1135,-11.1127,-11.1122,-11.1133,-11.124,-11.1243,-11.1245,-11.1247,0,-10.9811,-10.9847,-10.9997,-11.0079,-11.0102,-11.0197,-11.0265,-11.0346,-11.0375,-11.0491,-11.0518,-11.0563,-11.0666,-11.0691,-11.0811,-11.0821,-11.0976,-11.0965,-11.0954,-11.0953,-11.1047,-11.1039,-11.1343,-11.1385,-11.1126,-11.1128,-11.113,0,-10.9641,-10.976,-10.9807,-10.9892,-11.0026,-11.0043,-11.0174,-11.0212,-11.0274,-11.0365,-11.0351,-11.0436,-11.0453,-11.0541,-11.0554,-11.0685,-11.0706,-11.0722,-11.0724,-11.0724,-11.0722,-11.0756,-11.0745,-11.0722,-11.0721,-11.0719,-11.0718,0,-10.9445,-10.9607,-10.9745,-10.9787,-10.9883,-10.9947,-10.9989,-11.0057,-11.0117,-11.0198,-11.0237,-11.0328,-11.0378,-11.0448,-11.0465,-11.0405,-11.0624,-11.0545,-11.0639,-11.0639,-11.0685,-11.0682,-11.0947,-11.0716,-11.0716,-11.0715,-11.0715,0,-10.9312,-10.9397,-10.959,-10.9671,-10.9712,-10.98,-10.9894,-10.9976,-11.0048,-11.0064,-11.0126,-11.0118,-11.0233,-11.0154,-11.0312,-11.023,-11.0279,-11.0304,-11.0311,-11.0322,-11.0233,-11.0381,-11.0629,-11.0657,-11.0334,-11.0331,-11.0328,0,-10.9079,-10.9282,-10.9299,-10.948,-10.9577,-10.9558,-10.9656,-10.972,-10.9749,-10.9833,-10.9863,-10.9957,-10.9903,-10.9935,-11.001,-11.0043,-11.0149,-11.0029,-11.0148,-11.0152,-11.0133,-11.0362,-11.0393,-11.0572,-11.0288,-11.0292,-11.0295,0,-10.8902,-10.9018,-10.9049,-10.9098,-10.9187,-10.9265,-10.9378,-10.9476,-10.9532,-10.9603,-10.9697,-10.9827,-10.9793,-10.9845,-10.9846,-10.9923,-11.0078,-10.9874,-10.9876,-10.9912,-11.0268,-11.0299,-11.0329,-11.0061,-11.0066,-11.007,-11.0263,0,-10.8699,-10.8802,-10.8887,-10.8992,-10.9057,-10.9169,-10.9197,-10.9261,-10.9259,-10.9285,-10.9421,-10.9475,-10.957,-10.9608,-10.9603,-10.9771,-10.9746,-10.9706,-10.963,-10.9779,-10.9843,-10.9869,-10.9533,-10.9531,-10.9529,-10.9527,0,0,-10.8467,-10.8616,-10.8628,-10.8738,-10.8794,-10.8769,-10.8888,-10.8937,-10.9037,-10.9076,-10.9034,-10.9225,-10.9269,-10.9431,-10.948,-10.9516,-10.9549,-10.9494,-10.9707,-10.9727,-10.9746,-10.9814,-10.9841,-10.9524,-10.9523,-10.9523,-10.9522,0,-10.8399,-10.845,-10.8567,-10.8621,-10.87,-10.8723,-10.8751,-10.8823,-10.8845,-10.8977,-10.8952,-10.9035,-10.9184,-10.9236,-10.9282,-10.9476,-10.945,-10.9502,-10.9601,-10.9688,-10.9711,-10.9731,-10.9802,-10.9827,-10.9518,-10.9518,-10.9518,0,-10.8231,-10.8287,-10.8345,-10.847,-10.852,-10.8617,-10.8546,-10.865,-10.8722,-10.8683,-10.8814,-10.8846,-10.8915,-10.9063,-10.913,-10.9093,-10.9359,-10.9277,-10.9289,-10.9296,-10.9382,-10.9409,-10.9433,-10.9118,-10.9117,-10.9115,0,0,-10.8167,-10.8263,-10.8325,-10.8456,-10.849,-10.8523,-10.8576,-10.8578,-10.8643,-10.8669,-10.8709,-10.877,-10.8858,-10.8914,-10.8997,-10.9155,-10.9171,-10.9227,-10.9246,-10.9261,-10.9277,-10.9367,-10.9393,-10.911,-10.911,-10.9109,0,0,-10.8135,-10.8215,-10.8201,-10.8356,-10.8421,-10.8488,-10.8566,-10.8549,-10.8626,-10.8616,-10.8619,-10.8635,-10.8774,-10.8804,-10.8728,-10.897,-10.8893,-10.8912,-10.8944,-10.8968,-10.8987,-10.8977,-10.8658,0,0,0,0,0,-10.8078,-10.8206,-10.8192,-10.8222,-10.8375,-10.8497,-10.8516,-10.8524,-10.8472,-10.8534,-10.8565,-10.8533,-10.8765,-10.8698,-10.8725,-10.881,-10.9038,-10.9051,-10.9063,-10.9142,-10.9167,-10.9188,0,0,0,0,0,0,-10.809,-10.8127,-10.8189,-10.8261,-10.8296,-10.8492,-10.8406,-10.8411,-10.8466,-10.8458,-10.8528,-10.8535,-10.8541,-10.8684,-10.8709,-10.8789,-10.865,-10.9043,-10.9054,-10.9064,-10.9151,-10.9171,-10.9189,0,0,0,0,0,-10.8099,-10.8129,-10.8372,-10.826,-10.8289,-10.8331,-10.8401,-10.8405,-10.8446,-10.8493,-10.8499,-10.8448,-10.8544,-10.8565,-10.8699,-10.8777,-10.8633,-10.8642,-10.905,-10.9059,-10.9066,-10.9161,0,0,0,0,0,0,-10.8106,-10.8132,-10.8378,-10.8388,-10.8212,-10.832,-10.8338,-10.8399,-10.8478,-10.8486,-10.8412,-10.8406,-10.8547,-10.8562,-10.8579,-10.8773,-10.8619,-10.8628,-10.8634,-10.9057,-10.9063,-10.9069,0,0,0,0,0,0,-10.8116,-10.814,-10.8383,-10.8323,-10.8325,-10.831,-10.8326,-10.8439,-10.8479,-10.8392,-10.8389,-10.8408,-10.852,-10.8562,-10.8574,-10.875,-10.8608,-10.8617,-10.8623,-10.8627,-10.9062,-10.9067,0,0,0,0,0,0,-10.8127,-10.8147,-10.832,-10.8322,-10.8324,-10.8428,-10.8409,-10.8564,-10.8432,-10.8389,-10.8419,-10.8414,-10.852,-10.8533,-10.8571,-10.8742,-10.8748,-10.8608,-10.8614,-10.8619,-10.8622,0,0,0,0,0,0,0,-10.8135,-10.7996,-10.8324,-10.8322,-10.8323,-10.8474,-10.8476,-10.8479,-10.843,-10.8425,-10.8421,-10.8416,-10.8557,-10.8566,-10.8576,-10.8735,0,0,-10.8607,-10.8612,0,0,0,0,0,0,0,0,-10.7987,-10.7994,-10.8324,-10.8326,-10.8328,-10.8474,-10.8476,-10.8478,-10.8429,-10.8426,-10.8422,-10.8418,-10.8559,-10.8567,-10.8575,0,0,0,0,0,0,0,0,0,0,0,0,0,0,0,-10.8324,-10.8326,0,-10.8475,-10.8476,-10.8478,-10.8429,-10.8426,-10.8423,-10.8419,-10.8561,-10.8568,-10.8575,0,0,0,0,0,0,0,0,0,0,0,0,0,0,0,0,0,0,0,0,0,0,0,0,0,0,0,0,0,0,0,0,0,0,0,0,0,0,0,0,0,0,0,0,0,0,0,0,0,0,0,0,0,0,0,0,0,0,0,0,0,0,0,0,0,0,0,0,0]}]]]